Poteau, OK

2:56 PM CDT on August 28, 2016 (GMT -0500)
Kerr

Weather History for KRKR - October, 2012

Change the Weather History Date:

Sunday, October 28, 2012

  Actual Average (KFSM) Record (KFSM)
Temperature  
Mean Temperature 44 °F 59 °F  
Max Temperature 59 °F 71 °F 86 °F (1950)
Min Temperature 30 °F 47 °F 25 °F (1957)
Degree Days  
Heating Degree Days 20 7  
Month to date heating degree days 114  
Since 1 July heating degree days 131  
Cooling Degree Days 0 1  
Month to date cooling degree days 64  
Year to date cooling degree days 2042  
Moisture  
Dew Point 33 °F    
Average Humidity 76    
Maximum Humidity 100    
Minimum Humidity 34    
Precipitation  
Precipitation 0.00 in 0.14 in 3.05 in (1991)
Month to date precipitation 3.89  
Year to date precipitation 37.30  
Sea Level Pressure  
Sea Level Pressure 30.26 in    
Wind  
Wind Speed 1 mph (North)    
Max Wind Speed 8 mph    
Max Gust Speed -    
Visibility 9 miles    
Events      
T = Trace of Precipitation, MM = Missing Value Source: NWS Daily Summary

Daily Weather History Graph

Daily Weather History Graph

Search for Another Location

Airport or City:

Trip Planner

Search our weather history database for the weather conditions in past years. The results will help you decide how hot, cold, wet, or windy it might be!

Date:

Astronomy

Oct. 28, 2012 Rise Set
Actual Time 7:36 AM CDT 6:27 PM CDT
Civil Twilight 7:10 AM CDT 6:53 PM CDT
Nautical Twilight 6:40 AM CDT 7:23 PM CDT
Astronomical Twilight 6:10 AM CDT 7:52 PM CDT
Moon 5:45 PM CDT 6:31 AM CDT
Length of Visible Light 11h 43m
Length of Day
10h 51m
Waxing Gibbous, 99% of the Moon is Illuminated
Oct 28
Waxing Gibbous
Oct 29
Full
Nov 6
Last Quarter
Nov 13
New
Nov 20
First Quarter

Hourly Weather History & Observations

Time (CDT) Temp. Dew Point Humidity Pressure Visibility Wind Dir Wind Speed Gust Speed Precip Events Conditions
12:15 AM 35.6 °F 35.6 °F 100% 30.25 in 10.0 mi Calm Calm - N/A   Clear
12:55 AM 35.6 °F 35.6 °F 100% 30.26 in 10.0 mi Calm Calm - N/A   Clear
1:15 AM 33.8 °F 33.8 °F 100% 30.26 in 10.0 mi Calm Calm - N/A   Clear
1:35 AM 33.8 °F 33.8 °F 100% 30.26 in 10.0 mi Calm Calm - N/A   Clear
1:55 AM 33.8 °F 33.8 °F 100% 30.26 in 10.0 mi Calm Calm - N/A   Clear
2:15 AM 32.0 °F 32.0 °F 100% 30.26 in 10.0 mi Calm Calm - N/A   Clear
2:35 AM 33.8 °F 33.8 °F 100% 30.26 in 10.0 mi Calm Calm - N/A   Clear
2:55 AM 32.0 °F 32.0 °F 100% 30.26 in 7.0 mi Calm Calm - N/A   Clear
3:15 AM 33.8 °F 33.8 °F 100% 30.26 in 7.0 mi Calm Calm - N/A   Clear
3:35 AM 32.0 °F 32.0 °F 100% 30.26 in 10.0 mi Calm Calm - N/A   Clear
3:55 AM 32.0 °F 32.0 °F 100% 30.26 in 7.0 mi Calm Calm - N/A   Clear
4:15 AM 32.0 °F 32.0 °F 100% 30.25 in 10.0 mi Calm Calm - N/A   Clear
4:35 AM 32.0 °F 32.0 °F 100% 30.25 in 7.0 mi Calm Calm - N/A   Clear
4:55 AM 32.0 °F 32.0 °F 100% 30.25 in 10.0 mi Calm Calm - N/A   Clear
5:15 AM 32.0 °F 32.0 °F 100% 30.26 in 10.0 mi Calm Calm - N/A   Clear
5:35 AM 32.0 °F 32.0 °F 100% 30.26 in 10.0 mi Calm Calm - N/A   Clear
5:55 AM 32.0 °F 32.0 °F 100% 30.26 in 7.0 mi Calm Calm - N/A   Clear
6:15 AM 32.0 °F 32.0 °F 100% 30.27 in 7.0 mi Calm Calm - N/A   Scattered Clouds
6:35 AM 32.0 °F 32.0 °F 100% 30.28 in 5.0 mi Calm Calm - N/A   Scattered Clouds
6:55 AM 30.2 °F 30.2 °F 100% 30.28 in 1.2 mi Calm Calm - N/A   Mostly Cloudy
7:15 AM 32.0 °F 32.0 °F 100% 30.28 in 1.5 mi Calm Calm - N/A   Mostly Cloudy
7:35 AM 32.0 °F 32.0 °F 100% 30.28 in 7.0 mi Calm Calm - N/A   Clear
7:55 AM 32.0 °F 32.0 °F 100% 30.29 in 7.0 mi Calm Calm - N/A   Clear
8:15 AM 32.0 °F 32.0 °F 100% 30.29 in 7.0 mi Calm Calm - N/A   Clear
8:35 AM 32.0 °F 32.0 °F 100% 30.29 in 7.0 mi Calm Calm - N/A   Clear
8:55 AM 32.0 °F 32.0 °F 100% 30.30 in 7.0 mi Calm Calm - N/A   Clear
9:35 AM 35.6 °F 35.6 °F 100% 30.31 in 10.0 mi Calm Calm - N/A   Clear
9:55 AM 37.4 °F 35.6 °F 93% 30.32 in 10.0 mi Calm Calm - N/A   Scattered Clouds
10:15 AM 41.0 °F 37.4 °F 87% 30.31 in 10.0 mi Calm Calm - N/A   Clear
10:35 AM 42.8 °F 35.6 °F 76% 30.32 in 10.0 mi Calm Calm - N/A   Clear
10:55 AM 44.6 °F 35.6 °F 71% 30.32 in 10.0 mi Calm Calm - N/A   Clear
11:15 AM 44.6 °F 35.6 °F 71% 30.31 in 10.0 mi Calm Calm - N/A   Clear
11:35 AM 48.2 °F 35.6 °F 62% 30.31 in 10.0 mi Calm Calm - N/A   Clear
12:15 PM 51.8 °F 33.8 °F 50% 30.31 in 10.0 mi NNE 8.1 mph - N/A   Clear
12:35 PM 53.6 °F 33.8 °F 47% 30.30 in 10.0 mi NNE 3.5 mph - N/A   Clear
12:55 PM 55.4 °F 33.8 °F 44% 30.28 in 10.0 mi NNE 4.6 mph - N/A   Clear
1:15 PM 55.4 °F 32.0 °F 41% 30.28 in 10.0 mi North 5.8 mph - N/A   Clear
1:35 PM 55.4 °F 32.0 °F 41% 30.27 in 10.0 mi North 5.8 mph - N/A   Clear
1:55 PM 55.4 °F 32.0 °F 41% 30.27 in 10.0 mi Calm Calm - N/A   Clear
2:15 PM 57.2 °F 30.2 °F 36% 30.26 in 10.0 mi NNW 5.8 mph - N/A   Clear
2:35 PM 59.0 °F 32.0 °F 36% 30.25 in 10.0 mi North 6.9 mph - N/A   Clear
2:55 PM 59.0 °F 32.0 °F 36% 30.24 in 10.0 mi North 5.8 mph - N/A   Clear
3:15 PM 59.0 °F 30.2 °F 34% 30.23 in 10.0 mi ENE 4.6 mph - N/A   Clear
3:35 PM 59.0 °F 30.2 °F 34% 30.23 in 10.0 mi North 3.5 mph - N/A   Clear
3:55 PM 59.0 °F 32.0 °F 36% 30.23 in 10.0 mi North 4.6 mph - N/A   Clear
4:15 PM 59.0 °F 30.2 °F 34% 30.23 in 10.0 mi Calm Calm - N/A   Clear
4:35 PM 59.0 °F 30.2 °F 34% 30.23 in 10.0 mi WNW 4.6 mph - N/A   Clear
4:55 PM 59.0 °F 30.2 °F 34% 30.22 in 10.0 mi Calm Calm - N/A   Clear
5:15 PM 59.0 °F 30.2 °F 34% 30.21 in 10.0 mi Calm Calm - N/A   Clear
5:35 PM 59.0 °F 30.2 °F 34% 30.21 in 10.0 mi Calm Calm - N/A   Clear
5:55 PM 59.0 °F 30.2 °F 34% 30.22 in 10.0 mi Calm Calm - N/A   Clear
6:15 PM 55.4 °F 32.0 °F 41% 30.23 in 10.0 mi Calm Calm - N/A   Clear
6:35 PM 53.6 °F 32.0 °F 44% 30.22 in 10.0 mi Calm Calm - N/A   Clear
6:55 PM 51.8 °F 35.6 °F 54% 30.23 in 10.0 mi Calm Calm - N/A   Clear
7:15 PM 50.0 °F 35.6 °F 58% 30.23 in 10.0 mi Calm Calm - N/A   Clear
7:35 PM 44.6 °F 35.6 °F 71% 30.23 in 10.0 mi Calm Calm - N/A   Clear
7:55 PM 44.6 °F 35.6 °F 71% 30.23 in 10.0 mi Calm Calm - N/A   Clear
8:15 PM 42.8 °F 35.6 °F 76% 30.23 in 10.0 mi Calm Calm - N/A   Clear
8:55 PM 41.0 °F 35.6 °F 81% 30.24 in 10.0 mi Calm Calm - N/A   Clear
9:15 PM 41.0 °F 35.6 °F 81% 30.24 in 10.0 mi Calm Calm - N/A   Clear
9:35 PM 41.0 °F 35.6 °F 81% 30.25 in 10.0 mi Calm Calm - N/A   Clear
9:55 PM 37.4 °F 35.6 °F 93% 30.25 in 10.0 mi Calm Calm - N/A   Clear
10:15 PM 37.4 °F 35.6 °F 93% 30.26 in 10.0 mi Calm Calm - N/A   Clear
10:35 PM 37.4 °F 35.6 °F 93% 30.26 in 10.0 mi Calm Calm - N/A   Clear
10:55 PM 37.4 °F 35.6 °F 93% 30.27 in 10.0 mi Calm Calm - N/A   Clear
11:15 PM 37.4 °F 35.6 °F 93% 30.27 in 10.0 mi Calm Calm - N/A   Clear
11:55 PM 35.6 °F 35.6 °F 100% 30.27 in 10.0 mi Calm Calm - N/A   Clear